Location: Big Prairie
(40.6673°N, 82.0952°W)
Time: 19:49:37
(UTC+00:00)

Cosmos 841 Rocket - Pass Details

Date: 03 July 2022
Orbit: 746 x 772 km, 74.0° (Epoch: 11 August)

Event Time Altitude Azimuth Distance (km) Brightness Sun altitude
Exits shadow 08:48:23 - 263° (W) 2,320 5.5 -11.8°
Reaches altitude 10° 08:48:37 10° 265° (W) 2,265 5.5 -11.8°
Maximum altitude 08:51:50 17° 304° (NW) 1,859 5.4 -11.4°
Drops below altitude 10° 08:55:05 10° 343° (NNW) 2,281 6.3 -10.9°
Sets 08:58:21 0° 5° (N) 3,216 7.5 -10.5°
